Total_Precipitation_Accumulation
0.00 0.00 0.00 0.00 0.00 0.00 0.02 0.09 0.15 0.23 0.30 0.29 0.28 0.35 0.40 0.40 0.68 1.30 0.83 0.43 0.30 0.14 0.10 0.08 0.08 0.07 0.07 0.07 0.10 0.11 0.11 0.11 0.10 0.09 0.08 0.08 0.08 0.08 0.08 0.08 0.09 0.13 0.16 0.15 0.14 0.13 0.13 0.11 0.09
0.00 0.00 0.00 0.00 0.00 0.01 0.03 0.09 0.19 0.26 0.30 0.25 0.27 0.31 0.35 0.41 0.42 0.42 0.42 0.33 0.25 0.16 0.13 0.09 0.08 0.07 0.07 0.07 0.09 0.11 0.11 0.10 0.10 0.09 0.08 0.08 0.08 0.09 0.10 0.11 0.13 0.17 0.20 0.19 0.15 0.12 0.09 0.08 0.08
0.00 0.00 0.00 0.00 0.01 0.01 0.06 0.14 0.21 0.27 0.32 0.31 0.38 0.48 0.53 0.48 0.45 0.36 0.30 0.23 0.18 0.14 0.13 0.12 0.10 0.08 0.08 0.07 0.08 0.11 0.11 0.10 0.10 0.10 0.10 0.10 0.10 0.10 0.12 0.17 0.20 0.21 0.22 0.23 0.20 0.15 0.11 0.08 0.08
0.00 0.00 0.00 0.00 0.01 0.01 0.06 0.16 0.25 0.31 0.35 0.36 0.39 0.61 0.66 0.45 0.46 0.36 0.30 0.22 0.15 0.13 0.11 0.10 0.11 0.11 0.10 0.10 0.11 0.12 0.13 0.12 0.13 0.13 0.13 0.13 0.13 0.14 0.17 0.25 0.31 0.29 0.26 0.29 0.27 0.23 0.16 0.11 0.09
0.00 0.00 0.00 0.00 0.01 0.02 0.06 0.14 0.24 0.31 0.37 0.36 0.37 0.62 0.81 0.67 0.54 0.45 0.32 0.20 0.15 0.17 0.17 0.13 0.14 0.16 0.15 0.15 0.15 0.17 0.17 0.19 0.21 0.20 0.18 0.18 0.18 0.19 0.25 0.32 0.35 0.33 0.32 0.32 0.28 0.21 0.14 0.12 0.13
0.00 0.00 0.00 0.00 0.01 0.03 0.06 0.08 0.20 0.32 0.37 0.41 0.44 0.72 1.09 1.05 0.67 0.43 0.36 0.31 0.23 0.22 0.18 0.15 0.17 0.20 0.22 0.23 0.24 0.23 0.24 0.24 0.25 0.24 0.24 0.21 0.20 0.23 0.29 0.34 0.36 0.36 0.32 0.27 0.22 0.19 0.16 0.17 0.18
0.00 0.00 0.00 0.00 0.02 0.07 0.10 0.12 0.19 0.29 0.34 0.40 0.48 0.80 1.10 1.07 0.80 0.59 0.53 0.44 0.33 0.30 0.30 0.29 0.30 0.29 0.31 0.34 0.35 0.34 0.33 0.31 0.28 0.26 0.24 0.22 0.23 0.28 0.32 0.38 0.42 0.40 0.31 0.25 0.23 0.21 0.18 0.18 0.18
0.00 0.00 0.00 0.00 0.02 0.09 0.14 0.17 0.20 0.23 0.41 0.46 0.48 0.80 1.24 1.29 1.02 0.94 0.90 0.79 0.68 0.64 0.64 0.63 0.59 0.53 0.45 0.41 0.42 0.43 0.42 0.40 0.35 0.29 0.25 0.27 0.31 0.36 0.42 0.40 0.42 0.40 0.34 0.30 0.28 0.24 0.20 0.20 0.20
0.00 0.00 0.00 0.01 0.03 0.08 0.16 0.22 0.20 0.23 0.35 0.59 0.58 0.71 1.09 1.26 1.20 1.19 1.18 1.08 1.15 1.18 1.15 1.00 0.88 0.76 0.78 0.72 0.54 0.55 0.54 0.51 0.45 0.41 0.36 0.39 0.48 0.59 0.66 0.57 0.59 0.52 0.44 0.40 0.40 0.35 0.32 0.29 0.26
0.00 0.00 0.01 0.01 0.02 0.07 0.14 0.20 0.18 0.26 0.35 0.68 0.75 0.81 1.03 1.25 1.50 1.53 1.39 1.27 1.37 1.54 1.39 1.19 1.18 1.14 1.07 0.94 0.86 0.84 0.73 0.69 0.63 0.71 0.61 0.68 0.97 1.08 0.97 0.94 0.80 0.74 0.67 0.60 0.60 0.55 0.46 0.40 0.40
0.00 0.00 0.01 0.03 0.05 0.08 0.15 0.21 0.24 0.30 0.53 0.83 1.03 1.21 1.25 1.44 1.63 1.72 1.66 1.57 1.65 1.62 1.39 1.34 1.45 1.41 1.43 1.41 1.34 1.22 1.15 1.10 0.98 1.07 1.04 1.11 1.12 1.08 1.13 1.18 1.06 0.99 0.94 0.96 0.97 0.77 0.66 0.67 0.71
0.00 0.01 0.02 0.06 0.10 0.13 0.18 0.23 0.30 0.35 0.60 0.92 1.04 1.35 1.58 1.74 1.77 1.85 1.95 1.89 2.04 1.95 1.69 1.54 1.43 1.52 1.69 1.66 1.62 1.60 1.57 1.56 1.47 1.44 1.31 1.40 1.46 1.50 1.47 1.54 1.54 1.57 1.51 1.46 1.37 1.23 1.10 1.03 1.02
0.01 0.01 0.03 0.07 0.11 0.12 0.15 0.23 0.26 0.30 0.51 0.70 0.88 1.16 1.26 1.48 1.79 2.26 2.28 2.34 2.46 2.40 2.18 1.89 1.81 1.79 1.80 1.87 1.89 1.65 1.70 1.76 1.89 1.85 1.65 1.67 1.67 1.73 1.90 1.93 2.03 1.96 2.08 1.99 1.80 1.57 1.47 1.38 1.18
0.02 0.02 0.04 0.08 0.11 0.15 0.19 0.25 0.25 0.35 0.50 0.60 0.69 0.85 1.16 1.28 1.49 2.00 2.43 2.56 2.56 2.57 2.45 2.23 2.05 2.01 1.90 2.07 2.23 2.09 1.93 1.95 1.97 2.05 1.93 1.94 1.99 2.07 2.16 2.22 2.29 2.16 2.16 2.18 2.07 1.82 1.68 1.59 1.44
0.02 0.04 0.08 0.10 0.10 0.12 0.17 0.30 0.32 0.31 0.46 0.64 0.71 0.78 1.09 1.42 1.57 1.98 2.40 2.64 2.81 2.71 2.48 2.46 2.31 2.41 2.46 2.60 2.61 2.61 2.53 2.51 2.45 2.40 2.41 2.35 2.35 2.42 2.41 2.58 2.61 2.47 2.42 2.39 2.32 2.19 1.94 1.85 1.80
0.03 0.07 0.11 0.12 0.10 0.08 0.13 0.34 0.42 0.38 0.52 0.63 0.77 0.86 1.09 1.42 1.72 1.98 2.26 2.40 2.66 2.65 2.65 2.67 2.56 2.63 2.77 2.71 2.60 2.64 2.85 2.86 2.80 2.75 2.79 2.70 2.71 2.77 2.90 2.85 2.70 2.58 2.53 2.54 2.65 2.51 2.25 2.17 2.21
0.03 0.07 0.11 0.12 0.10 0.12 0.15 0.33 0.41 0.41 0.57 0.70 0.76 0.88 0.99 1.15 1.45 1.85 2.24 2.44 2.56 2.61 2.51 2.59 2.72 2.63 2.77 2.80 2.76 2.81 3.03 3.16 3.20 3.19 3.08 3.03 3.07 3.08 3.22 3.19 2.98 2.77 2.69 2.71 2.58 2.59 2.50 2.53 2.49
0.02 0.04 0.05 0.07 0.09 0.13 0.19 0.34 0.47 0.50 0.66 0.73 0.85 0.84 0.95 1.15 1.48 1.82 2.27 2.50 2.49 2.57 2.57 2.56 2.79 2.75 2.89 2.99 2.86 2.92 2.95 3.04 3.17 3.30 3.35 3.47 3.51 3.50 3.52 3.43 3.26 3.10 2.97 2.91 2.81 2.76 2.73 2.60 2.47
0.02 0.03 0.04 0.06 0.08 0.16 0.26 0.41 0.57 0.65 0.73 0.81 0.92 0.94 1.17 1.24 1.44 1.81 2.24 2.53 2.81 2.72 2.71 2.60 2.66 2.86 2.89 2.99 3.11 3.34 3.29 3.25 3.49 3.74 3.85 4.02 4.09 3.92 3.88 3.79 3.64 3.46 3.24 3.08 2.92 2.79 2.66 2.48 2.32
0.02 0.03 0.06 0.12 0.15 0.23 0.35 0.47 0.64 0.75 0.73 0.89 1.05 1.07 1.41 1.59 1.64 1.88 2.29 2.56 2.78 2.86 2.82 2.83 2.99 3.01 3.08 3.38 3.82 4.21 4.49 4.61 4.66 4.83 4.82 4.70 4.54 4.42 4.29 4.20 3.98 3.72 3.48 3.24 3.02 2.78 2.57 2.38 2.23
0.03 0.04 0.07 0.13 0.21 0.29 0.42 0.72 0.82 0.77 0.79 0.97 1.18 1.21 1.42 1.70 1.87 1.79 1.86 2.03 2.36 2.64 2.82 2.88 3.17 3.48 3.80 4.23 4.71 5.10 5.44 5.61 5.45 5.24 5.12 4.91 4.68 4.50 4.17 3.95 3.87 3.65 3.31 3.08 2.91 2.70 2.52 2.30 2.15
0.04 0.04 0.06 0.09 0.18 0.34 0.40 0.73 0.87 0.87 0.99 1.09 1.21 1.14 1.29 1.38 1.59 1.75 1.75 1.83 2.07 2.34 2.66 2.94 3.21 3.74 4.46 5.07 5.58 6.01 6.16 6.11 5.94 5.65 5.26 4.83 4.47 4.15 3.87 3.61 3.33 3.10 2.83 2.59 2.44 2.34 2.28 2.20 2.08
0.02 0.03 0.05 0.09 0.12 0.25 0.31 0.59 0.88 0.95 1.03 1.15 1.32 1.21 1.19 1.25 1.30 1.43 1.54 1.66 1.89 2.14 2.45 2.80 3.16 3.79 4.44 5.05 5.60 5.99 6.15 6.03 5.73 5.27 4.77 4.27 3.80 3.42 3.12 2.87 2.59 2.34 2.15 1.98 1.80 1.75 1.87 1.98 1.98
0.01 0.03 0.06 0.10 0.15 0.30 0.29 0.47 0.95 1.16 1.24 1.40 1.40 1.45 1.52 1.40 1.31 1.31 1.32 1.39 1.53 1.78 2.09 2.50 2.94 3.43 3.91 4.28 4.78 5.08 5.24 5.17 4.83 4.34 3.73 3.28 2.95 2.65 2.38 2.13 1.93 1.74 1.56 1.46 1.39 1.38 1.44 1.57 1.67
0.01 0.04 0.14 0.24 0.27 0.33 0.28 0.50 1.04 1.31 1.33 1.43 1.41 1.52 1.61 1.50 1.39 1.31 1.27 1.26 1.34 1.55 1.87 2.13 2.38 2.77 3.03 3.32 3.69 3.90 3.90 3.74 3.51 3.26 2.96 2.54 2.16 1.87 1.66 1.47 1.35 1.22 1.13 1.09 1.06 1.09 1.17 1.22 1.28
0.01 0.03 0.19 0.39 0.37 0.39 0.49 0.86 1.30 1.33 1.23 1.25 1.30 1.30 1.33 1.22 1.22 1.26 1.28 1.26 1.34 1.38 1.53 1.71 1.83 2.01 2.14 2.24 2.42 2.44 2.40 2.31 2.28 2.12 1.90 1.65 1.38 1.12 0.99 0.92 0.85 0.81 0.81 0.78 0.78 0.82 0.90 0.96 0.99
0.01 0.04 0.10 0.18 0.25 0.45 0.82 1.30 1.63 1.48 1.40 1.31 1.16 1.02 1.11 1.10 1.08 1.14 1.19 1.23 1.27 1.27 1.26 1.27 1.28 1.31 1.30 1.31 1.41 1.46 1.44 1.40 1.35 1.24 1.11 0.99 0.88 0.77 0.69 0.65 0.63 0.61 0.61 0.61 0.60 0.60 0.61 0.69 0.78
0.03 0.06 0.08 0.16 0.43 0.62 0.89 1.34 1.84 1.90 1.85 1.77 1.47 1.16 1.14 1.15 1.18 1.05 0.97 1.02 1.10 1.07 1.04 0.99 0.99 0.97 0.89 0.81 0.83 0.87 0.90 0.86 0.81 0.76 0.72 0.67 0.62 0.57 0.52 0.46 0.43 0.39 0.39 0.42 0.48 0.49 0.46 0.50 0.55
0.06 0.07 0.10 0.18 0.32 0.62 1.08 1.62 1.72 1.97 2.02 1.87 1.59 1.30 1.26 1.22 1.18 1.12 1.12 1.05 1.06 1.04 1.00 0.94 0.91 0.87 0.80 0.74 0.72 0.67 0.61 0.58 0.53 0.49 0.46 0.43 0.40 0.38 0.36 0.33 0.30 0.28 0.28 0.32 0.39 0.42 0.42 0.44 0.45
0.10 0.10 0.12 0.26 0.31 0.44 0.95 1.72 1.79 2.01 2.10 1.94 1.89 1.67 1.46 1.37 1.27 1.22 1.21 1.10 1.02 0.95 0.93 0.91 0.83 0.75 0.70 0.67 0.62 0.57 0.50 0.46 0.43 0.40 0.35 0.31 0.30 0.28 0.27 0.26 0.25 0.23 0.25 0.30 0.34 0.37 0.37 0.40 0.43